DLH15C EDDF-SBGR

Flight info

Callsign DLH15C
Flight time N/A
Altitude 31000
Route ANEKI2L/18 ANEKI Y163 HERBI Y164 OLBEN/N0490F350 DCT SAPRE DCT NAKET DCT TOU DCT TOPTU DCT VTB DCT INPAN N10 HIJ N857 KORNO UN857 VEDOD/N0491F370 UN857 TERTO N857 DEREV/N0489F360 N857 GUNET UN857 OPADU/N0495F380 UN857 FNR DCT UBRUT DCT REC/N0491F400 DCT UDOSA UZ21 VUNOX
Aircraft A388/J-SADE2E3FGHIJ3J4J5M1RWXY/LB1D1

Departure

Time 2026-04-16 12:29
Airport Frankfurt Main Airport (EDDF)

Arrival

Time N/A
Airport São Paulo/Guarulhos–Governor André Franco Montoro International Airport (SBGR)
Time Latitude Longitude Altitude Speed Heading
2026-04-16 11:57 50.04658 8.56053 359 ft 0 kts 339°
2026-04-16 12:11 50.04655 8.56055 361 ft 2 kts 337°
2026-04-16 12:11 50.04645 8.56064 361 ft 2 kts 330°
2026-04-16 12:11 50.04637 8.56074 361 ft 2 kts 323°
2026-04-16 12:12 50.04629 8.56085 361 ft 2 kts 317°
2026-04-16 12:12 50.04622 8.56098 361 ft 2 kts 310°
2026-04-16 12:12 50.04616 8.56112 361 ft 2 kts 303°
2026-04-16 12:12 50.04614 8.56116 361 ft 0 kts 301°
2026-04-16 12:14 50.04616 8.56110 361 ft 4 kts 302°
2026-04-16 12:15 50.04625 8.56091 361 ft 2 kts 314°
2026-04-16 12:15 50.04644 8.56068 361 ft 3 kts 330°
2026-04-16 12:15 50.04657 8.56058 361 ft 2 kts 336°
2026-04-16 12:15 50.04663 8.56053 358 ft 0 kts 336°
2026-04-16 12:18 50.04664 8.56053 358 ft 0 kts 336°
2026-04-16 12:20 50.04648 8.56062 360 ft 3 kts 339°
2026-04-16 12:20 50.04617 8.56103 360 ft 7 kts 292°
2026-04-16 12:20 50.04622 8.56132 360 ft 0 kts 233°
2026-04-16 12:20 50.04641 8.56148 360 ft 0 kts 196°
2026-04-16 12:21 50.04631 8.56143 360 ft 3 kts 205°
2026-04-16 12:21 50.04608 8.56120 360 ft 5 kts 216°
2026-04-16 12:22 50.04578 8.56075 360 ft 7 kts 231°
2026-04-16 12:22 50.04544 8.56015 360 ft 8 kts 218°
2026-04-16 12:22 50.04489 8.55972 356 ft 10 kts 193°
2026-04-16 12:22 50.04419 8.55972 352 ft 11 kts 171°
2026-04-16 12:23 50.04340 8.55987 359 ft 12 kts 181°
2026-04-16 12:23 50.04258 8.55949 358 ft 12 kts 216°
2026-04-16 12:23 50.04211 8.55838 359 ft 13 kts 248°
2026-04-16 12:23 50.04182 8.55705 359 ft 14 kts 251°
2026-04-16 12:24 50.04150 8.55561 358 ft 14 kts 251°
2026-04-16 12:24 50.04114 8.55412 356 ft 15 kts 249°
2026-04-16 12:24 50.04076 8.55257 358 ft 16 kts 249°
2026-04-16 12:24 50.04038 8.55097 359 ft 16 kts 249°
2026-04-16 12:25 50.03998 8.54933 356 ft 16 kts 249°
2026-04-16 12:25 50.03958 8.54766 359 ft 17 kts 249°
2026-04-16 12:25 50.03916 8.54596 355 ft 17 kts 249°
2026-04-16 12:25 50.03875 8.54425 356 ft 17 kts 248°
2026-04-16 12:26 50.03822 8.54263 359 ft 17 kts 242°
2026-04-16 12:26 50.03768 8.54100 358 ft 17 kts 244°
2026-04-16 12:26 50.03726 8.53933 358 ft 17 kts 248°
2026-04-16 12:26 50.03683 8.53768 358 ft 17 kts 248°
2026-04-16 12:27 50.03640 8.53603 360 ft 17 kts 248°
2026-04-16 12:27 50.03598 8.53427 355 ft 17 kts 251°
2026-04-16 12:27 50.03560 8.53252 354 ft 17 kts 251°
2026-04-16 12:27 50.03522 8.53076 355 ft 17 kts 251°
2026-04-16 12:28 50.03483 8.52899 355 ft 17 kts 251°
2026-04-16 12:28 50.03445 8.52724 359 ft 17 kts 247°
2026-04-16 12:28 50.03337 8.52609 357 ft 34 kts 191°
2026-04-16 12:28 50.02907 8.52602 357 ft 95 kts 180°
2026-04-16 12:29 50.02044 8.52601 359 ft 149 kts 180°
2026-04-16 12:29 50.00885 8.52609 356 ft 180 kts 180°
2026-04-16 12:29 49.99643 8.52612 849 ft 168 kts 179°
2026-04-16 12:29 49.98470 8.52686 1347 ft 171 kts 176°
2026-04-16 12:30 49.97269 8.52818 1805 ft 174 kts 176°
2026-04-16 12:30 49.96014 8.52951 2033 ft 189 kts 176°
2026-04-16 12:30 49.94673 8.53070 2144 ft 199 kts 177°
2026-04-16 12:30 49.93280 8.53176 2203 ft 206 kts 177°
2026-04-16 12:31 49.91813 8.53279 2250 ft 211 kts 177°
2026-04-16 12:31 49.90333 8.53377 2299 ft 215 kts 178°
2026-04-16 12:31 49.88781 8.53477 2337 ft 232 kts 178°
2026-04-16 12:31 49.87165 8.53583 2892 ft 233 kts 178°
2026-04-16 12:32 49.85530 8.53690 3527 ft 235 kts 178°
2026-04-16 12:32 49.83892 8.53796 4162 ft 237 kts 178°
2026-04-16 12:32 49.82239 8.53905 4780 ft 239 kts 178°
2026-04-16 12:32 49.80568 8.54015 5391 ft 241 kts 178°
2026-04-16 12:33 49.78887 8.54125 6007 ft 243 kts 178°
2026-04-16 12:33 49.77187 8.54082 6604 ft 246 kts 185°
2026-04-16 12:33 49.75425 8.53798 6874 ft 264 kts 186°
2026-04-16 12:33 49.73570 8.53496 7343 ft 270 kts 186°
2026-04-16 12:34 49.71692 8.53209 7938 ft 273 kts 185°
2026-04-16 12:34 49.69790 8.52938 8522 ft 275 kts 185°
2026-04-16 12:34 49.67870 8.52676 9091 ft 277 kts 185°
2026-04-16 12:34 49.65950 8.52420 9666 ft 280 kts 185°
2026-04-16 12:35 49.63989 8.52161 10087 ft 289 kts 185°
2026-04-16 12:35 49.61923 8.51889 10235 ft 306 kts 185°
2026-04-16 12:35 49.59758 8.51602 10386 ft 321 kts 185°
2026-04-16 12:35 49.57515 8.51306 10658 ft 330 kts 185°
2026-04-16 12:36 49.55211 8.51001 11175 ft 333 kts 185°
2026-04-16 12:36 49.52892 8.50695 11672 ft 335 kts 185°
2026-04-16 12:36 49.50553 8.50387 12183 ft 338 kts 185°
2026-04-16 12:36 49.48206 8.50079 12655 ft 340 kts 185°
2026-04-16 12:37 49.45835 8.49768 13135 ft 342 kts 185°
2026-04-16 12:37 49.43451 8.49456 13607 ft 345 kts 185°
2026-04-16 12:37 49.41055 8.49143 14063 ft 347 kts 185°
2026-04-16 12:37 49.38672 8.48831 14521 ft 349 kts 185°
2026-04-16 12:38 49.36238 8.48513 14969 ft 352 kts 185°
2026-04-16 12:38 49.33757 8.48189 15420 ft 354 kts 185°
2026-04-16 12:38 49.31330 8.47873 15842 ft 356 kts 185°
2026-04-16 12:38 49.28852 8.47552 16264 ft 358 kts 185°
2026-04-16 12:39 49.26352 8.47228 16684 ft 361 kts 185°
2026-04-16 12:39 49.23840 8.46901 17094 ft 363 kts 185°
2026-04-16 12:39 49.21321 8.46573 17482 ft 365 kts 185°
2026-04-16 12:39 49.18779 8.46243 17875 ft 367 kts 185°
2026-04-16 12:40 49.16223 8.45911 18252 ft 369 kts 185°